Flag for U.S.A. Weather past 2 weeks in Anchorage, Alaska, U.S.A.

Now
58 °F

Light rain. Mostly cloudy.


Feels Like: 58 °F
Forecast: 56 / 62 °F
Wind: No wind

Location: Lake Hood Seaplane

Current Time: Jul 7, 2015 at 9:05:54 PM

Latest Report: Jul 7, 2015 at 7:53 PM


Visibility: 4 mi

Pressure: 29.96 "Hg

Humidity: 84%

Dew point: 53 °F

Location of AnchorageLocation

Historic Weather in Anchorage — Graph

°F

Anchorage temperature yesterday

Maximum temperature yesterday: 78 °F (at 2:53 PM)
Minimum temperature yesterday: 59 °F (at 4:53 AM)
Average temperature yesterday: 68 °F

Past Weeks' High & Low Weather Summary

 TemperatureHumidityPressure
High78 °F (Jul 6, 2:53 PM)93% (Jul 3, 2:53 AM)30.24 "Hg (Jul 3, 2:53 AM)
Low51 °F (Jul 2, 5:53 AM)32% (Jun 24, 9:53 PM)29.76 "Hg (Jun 25, 7:53 PM)
Average61 °F64%30.00 "Hg
* Reported Jun 22 7:53 PM — Jul 7 7:53 PM, Anchorage, Weather by CustomWeather, © 2015

Note: Actual official high and low records may vary slightly from our data, if they occured in-between our weather recording intervals... More about our weather records

Advertising

Anchorage weather history for previous 24 hours

 ConditionsComfort  
Time TempWeatherWind HumidityBarometerVisibility
7:53 PM
Tue, Jul 7
58 °FLight rain. Mostly cloudy.No wind84%29.96 "Hg4 mi
6:53 PM59 °FMore clouds than sun.No wind87%29.97 "Hg10 mi
5:53 PM59 °FLight rain. More clouds than sun.No wind84%29.96 "Hg10 mi
4:53 PM59 °FLight rain. Mostly cloudy.5 mph81%29.97 "Hg6 mi
3:53 PM62 °FMostly cloudy.8 mph70%29.97 "Hg10 mi
2:53 PM61 °FLight rain. Cloudy.8 mph78%29.98 "Hg9 mi
1:53 PM63 °FBroken clouds.13 mph68%29.98 "Hg10 mi
12:53 PM62 °FOvercast.9 mph75%29.98 "Hg10 mi
11:53 AM64 °FCloudy.6 mph70%29.97 "Hg10 mi
10:53 AM62 °FMostly cloudy.8 mph70%29.97 "Hg10 mi
9:53 AM61 °FOvercast.No wind75%29.97 "Hg10 mi
8:53 AM61 °FOvercast.5 mph75%29.96 "Hg10 mi
7:53 AM63 °FMostly cloudy.8 mph65%29.94 "Hg10 mi
6:53 AM62 °FOvercast.14 mph65%29.93 "Hg10 mi
5:53 AM62 °FPartly sunny.14 mph67%29.94 "Hg10 mi
4:53 AM58 °FPassing clouds.No wind84%29.93 "Hg10 mi
3:53 AM60 °FPassing clouds.5 mph83%29.93 "Hg10 mi
2:53 AM63 °FPassing clouds.6 mph70%29.93 "Hg10 mi
1:53 AM61 °FLight rain. Overcast.5 mph87%29.93 "Hg10 mi
12:53 AM62 °FLight rain. Overcast.No wind75%29.93 "Hg10 mi
11:53 PM
Mon, Jul 6
67 °FScattered clouds.9 mph51%29.92 "Hg10 mi
10:53 PM66 °FPartly sunny.3 mph56%29.93 "Hg10 mi
9:53 PM67 °FPartly sunny.8 mph55%29.94 "Hg10 mi
Weather by CustomWeather, © 2015

See weather overviewHow to use our weather pages